AirNav   Pilot Hours Calculator
 
 475 users online  

E13 Crane County Airport
Crane, Texas, USA

GOING TO CRANE?


FAA INFORMATION EFFECTIVE 28 MARCH 2019

Location

FAA Identifier: E13
Lat/Long: 31-24-54.5020N / 102-21-46.5110W
31-24.908367N / 102-21.775183W
31.4151394 / -102.3629197
(estimated)
Elevation: 2552 ft. / 777.8 m (surveyed)
Variation: 09E (1985)
From city: 1 mile NW of CRANE, TX
Time zone: UTC -5 (UTC -6 during Standard Time)
Zip code: 79731

Airport Operations

Airport use: Open to the public
Activation date: 03/1943
Control tower: no
ARTCC: FORT WORTH CENTER
FSS: SAN ANGELO FLIGHT SERVICE STATION
NOTAMs facility: SJT (NOTAM-D service available)
Attendance: UNATNDD
Wind indicator: lighted
Segmented circle: yes
Lights: MIRL RWY 12/30 OFF SS-SR. CTAF TO ACTV 3 TIMES LOW, 5 TIMES MED, 7 TIMES HIGH.
Beacon: white-green (lighted land airport)
Operates sunset to sunrise.

Airport Communications

CTAF: 122.9

Nearby radio navigation aids

VOR radial/distance  VOR name  Freq  Var
MAFr183/36.7MIDLAND VORTAC114.8011E

Airport Services

Fuel available: 100LL
FOR FUEL CALL 432-558-3571.
Parking: tiedowns

Runway Information

Runway 12/30

Dimensions: 4145 x 70 ft. / 1263 x 21 m
Surface: asphalt, in fair condition
Runway edge lights: medium intensity
RUNWAY 12  RUNWAY 30
Traffic pattern: leftleft
Displaced threshold: no449 ft.
Markings: basic, in good conditionbasic, in good condition
Visual slope indicator: 2-box VASI on left
Obstructions: none
+30 FT MARKED POWER LINE 930 FT FM THLD; 220 FT RIGHT.
25 ft. pole, 343 ft. from runway, 52 ft. right of centerline, 5:1 slope to clear
4 FT FENCE 56 FT FM THLD; 111 FT R & EXTENDS ACROSS APPROACH.

Runway 15/33

Dimensions: 3395 x 50 ft. / 1035 x 15 m
Surface: asphalt, in fair condition
RUNWAY 15  RUNWAY 33
Traffic pattern: leftleft
Displaced threshold: no176 ft.
Markings: basic, in good conditionbasic, in good condition
Obstructions: 12 ft. trees, 200 ft. from runway
ROAD 120' FM THR ACRS APCH;+5' FENCE 160' FM THR ON CNTRLN, +12 FT VEGETATION 160 FT FM THLD ACROSS APCH.
33 ft. pline, marked, 696 ft. from runway, 15:1 slope to clear
APCH RATIO 31:1 FM DSPLCD THLD TO +30 FT PLINE 941 FT FM DSPLCD THLD ACROSS APCH.

Airport Ownership and Management from official FAA records

Ownership: Publicly-owned
Owner: CRANE COUNTY
COUNTY COURTHOUSE
CRANE, TX 79731
Phone (432) 558-1100
Manager: TODD SEABOURN
PO BOX 667
CRANE, TX 79731
Phone 432-558-1100
PARKS DEPT, 432-631-5196 MGR CELL.

Airport Operational Statistics

Aircraft based on the field: 3
Single engine airplanes: 3
    
Aircraft operations: avg 21/week *
55% local general aviation
45% transient general aviation
* for 12-month period ending 03 January 2018

Additional Remarks

RWY 12/30 PRI SFC OBSTD BY PUMPJACK 116' FM CNTRLN 80' NW OF DSPLCD THLD ON RWY 30.
+ 16 FT PUMP JACK 250 FT WEST OF RY 15 CENTERLINE NEAR THLD.

Instrument Procedures

There are no published instrument procedures at E13.

Some nearby airports with instrument procedures:

E01 - Roy Hurd Memorial Airport (30 nm W)
KODO - Odessa Airport-Schlemeyer Field (30 nm N)
KMAF - Midland International Air and Space Port Airport (33 nm N)
KMDD - Midland Airpark (40 nm N)
KFST - Fort Stockton-Pecos County Airport (41 nm SW)
 
Loc | Ops | Rwys | IFR | FBO | Links
Com | Nav | Svcs | Stats | Notes

Chandler Aviation LLC
 
Area around E13 (Crane County Airport)
 
Road maps at: MapQuest Bing Google
 
Aerial photo
WARNING: Photo may not be current or correct
Aerial photo of E13 (Crane County Airport)
Photo by Marc Marchesseault
Photo taken 16-Oct-2008
looking north

Do you have a better or more recent aerial photo of Crane County Airport that you would like to share? If so, please send us your photo.

 
Sectional chart

 
Airport distance calculator
Flying to Crane County Airport? Find the distance to fly.

From to E13

Sunrise and sunset
Times for 21-Apr-2019
 Local
(UTC-5)
 Zulu
(UTC)
Morning civil twilight06:5011:50
Sunrise07:1512:15
Sunset20:2101:21
Evening civil twilight20:4601:46

Current date and time
Zulu (UTC)  21-Apr-2019 11:53:50
Local (UTC-5)  21-Apr-2019 06:53:50
 
METAR
KODO 
30nm N 
211053Z AUTO 20013KT 10SM CLR 17/08 A2986 RMK AO2 SLP065 T01720078
KMAF 
33nm N 
211053Z AUTO 18011KT 10SM CLR 18/09 A2985 RMK AO2 SLP064 T01780089 $
KMDD 
40nm N 
211135Z AUTO 19013KT 10SM 18/11 A2986 RMK AO2 T01800106
KFST 
41nm SW 
211053Z AUTO 16011KT 10SM CLR 16/06 A2987 RMK AO2 SLP069 T01610056
KINK 
48nm NW 
211053Z AUTO 14004KT 10SM CLR 15/06 A2983 RMK AO2 SLP058 T01500061
TAF
KMAF 
33nm N 
210520Z 2106/2206 17014KT P6SM FEW250 FM211600 23015G25KT P6SM FEW250
KFST 
41nm SW 
210520Z 2106/2206 15018G25KT P6SM SKC FM211200 17015KT P6SM SKC
NOTAMs
Click for the latest NOTAMs
NOTAMs are issued by the DoD/FAA and will open in a separate window not controlled by AirNav.

 

 
 

FBO, Fuel Providers, and Aircraft Ground Support

  
 Business Name 
 
 Contact 
 
 Services / Description 
 
Fuel Prices
 
Comments
  
Crane County Airport 432-558-1103
no information available

If you are affiliated with Crane County Airport and would like to show here your services, contact info, web link, logo, and more, click here
100LL
PS $4.32 
 Updated 27-Sep-2018
 
   1 read write
PS=Pump service
Update Fuel Prices
 

Would you like to see your business listed on this page?

 If your business provides an interesting product or service to pilots, flight crews, aircraft, or users of the Crane County Airport, you should consider listing it here.  To start the listing process, click on the button below
 
Add a business
 

Other Pages about Crane County Airport

Update a link
 
Copyright © AirNav, LLC. All rights reserved. Privacy Policy  Contact